GFSGL_850_thetae_132.txt.gz
Theta_e
343 342 342 344 342 344 345 345 344 344 343 344 343 344 344 344 345 345 345 342 341 342 342 343 343 344 344 344 345 344 344 344 345 344 345 344 343 345 345 344 346 347 347
340 339 341 345 344 344 343 345 344 344 344 345 345 344 345 346 345 344 342 342 344 345 345 346 344 343 344 345 347 346 345 346 345 342 341 342 343 343 344 343 335 336 339
344 341 339 341 344 342 344 345 343 344 343 345 345 347 347 347 347 346 344 345 344 345 344 345 347 345 344 344 344 344 346 347 346 343 346 345 342 338 335 336 340 342 341
345 345 338 337 343 344 345 346 346 347 346 346 346 345 344 346 347 348 345 344 344 344 342 343 347 346 345 345 346 347 348 348 347 346 345 341 339 341 340 341 341 341 339
346 346 343 337 341 343 344 345 345 346 346 346 345 344 344 344 347 347 347 347 346 345 345 344 343 345 346 346 346 346 347 346 347 347 345 344 341 340 341 342 342 340 338
346 346 345 340 341 345 345 345 345 346 344 345 344 347 346 345 344 345 344 345 347 346 344 345 346 344 344 344 346 345 346 344 344 345 344 344 341 342 343 343 341 339 338
347 347 345 341 341 345 343 343 344 344 341 340 344 346 345 345 344 345 344 343 344 344 344 344 345 344 344 342 345 345 346 345 342 341 342 343 343 343 342 341 339 338 336
347 347 344 343 343 343 342 342 343 344 343 343 341 341 342 342 342 343 344 343 342 341 339 340 339 343 344 342 342 342 342 341 341 341 341 341 343 341 338 338 339 337 334
348 346 344 343 343 343 342 342 342 342 342 341 342 342 343 342 338 336 337 338 341 341 340 342 338 341 341 340 341 342 342 341 341 341 341 340 338 337 338 339 338 335 333
343 343 340 342 341 341 342 342 341 341 342 342 342 342 338 337 333 334 337 340 339 339 341 341 340 339 340 341 340 341 341 341 340 338 335 335 338 339 339 337 335 334 332
337 341 341 342 341 341 341 341 341 340 341 341 340 339 338 337 337 340 340 340 340 339 339 339 340 341 339 339 337 336 334 331 333 334 335 336 336 336 335 333 332 330 326
339 338 341 338 338 339 340 340 340 340 340 340 340 340 340 340 340 339 339 339 338 339 339 339 337 337 333 329 327 325 325 328 333 334 334 333 332 332 331 328 324 320 316
334 336 337 334 338 339 338 338 338 337 337 338 339 339 339 338 337 337 337 337 338 338 338 338 337 336 334 330 323 323 323 323 328 331 331 330 327 323 321 318 315 310 308
337 335 336 337 340 339 337 337 336 335 335 336 336 336 336 335 333 332 333 335 336 335 335 334 333 331 329 324 323 323 321 325 325 325 324 322 320 317 312 307 305 305 304
339 338 338 338 338 337 337 336 336 336 334 335 335 333 330 325 321 319 319 321 322 321 322 327 328 324 323 323 321 320 321 321 321 320 318 316 310 306 304 303 303 303 302
334 334 334 334 334 333 332 331 331 331 331 331 330 326 322 319 320 321 320 316 312 312 315 312 317 319 319 319 319 319 318 317 316 313 308 305 303 302 302 302 302 302 302
327 328 328 324 319 319 320 319 319 321 323 326 328 328 326 325 324 323 320 309 306 308 313 315 316 316 316 315 314 312 310 307 306 304 302 302 301 301 301 301 301 301 301
314 315 315 316 316 316 314 313 312 311 311 310 311 314 316 317 314 312 312 311 312 312 311 313 313 311 310 309 308 307 305 303 302 301 301 300 300 300 300 300 300 300 300
312 313 314 313 313 314 314 312 312 311 311 311 310 309 307 306 304 304 305 305 306 309 311 312 311 310 309 308 306 303 301 301 300 300 300 300 300 300 299 299 299 299 299
310 310 312 311 311 312 312 312 311 311 310 310 310 309 308 305 302 303 304 304 307 310 311 311 310 308 307 304 301 300 300 299 299 299 299 299 299 299 299 299 299 299 298
312 313 312 312 311 310 310 310 310 309 309 309 309 309 308 308 306 305 307 308 310 310 309 308 307 307 304 302 300 299 299 299 298 299 299 299 299 299 299 299 298 298 298
311 311 310 309 311 312 309 308 308 308 308 307 308 310 309 308 308 307 306 306 307 307 306 305 304 303 301 299 298 298 298 298 298 298 298 298 299 299 299 299 298 298 297
315 311 310 308 307 309 308 306 306 307 306 306 307 308 309 308 308 307 306 306 306 305 303 302 301 300 299 298 298 297 297 297 298 297 298 299 299 299 299 299 298 297 297
319 318 316 311 308 306 307 307 307 306 306 306 306 307 309 309 308 307 305 306 305 303 303 301 300 299 298 297 297 297 297 297 297 298 298 299 299 299 299 298 297 297 297
320 319 317 316 314 310 307 308 308 308 306 305 305 305 306 307 307 306 305 305 305 304 303 301 299 298 298 297 296 296 296 296 297 298 298 298 298 299 298 298 297 298 298
316 317 316 316 316 316 316 313 309 310 309 307 306 306 305 305 306 305 304 305 304 304 303 302 300 299 298 297 296 296 295 296 297 298 298 298 298 298 298 297 297 298 298

GFSGL_850_thetae_135.txt.gz
Theta_e
343 343 343 340 340 341 340 341 343 344 342 344 345 344 344 344 344 343 343 344 342 340 341 340 340 343 344 344 343 345 345 344 347 346 343 343 343 343 343 344 341 338 338
342 342 343 342 342 342 342 343 344 345 344 345 344 343 344 345 344 344 344 344 342 342 340 342 342 345 344 343 344 346 348 346 346 350 348 349 345 342 339 339 340 342 342
341 341 340 341 341 344 344 344 344 345 343 345 345 344 345 345 345 344 345 344 344 345 344 346 343 345 346 344 342 344 344 345 346 349 349 347 341 339 341 342 342 341 347
343 343 341 338 339 340 342 342 345 345 345 344 344 344 345 346 347 347 344 346 344 344 343 342 342 344 344 343 343 344 346 346 347 347 348 348 344 344 340 343 347 341 340
343 344 345 342 337 339 343 343 345 346 345 346 345 345 345 345 344 345 345 347 346 344 344 343 344 343 344 345 345 344 345 345 344 345 347 349 349 348 347 343 346 342 341
343 343 345 346 342 338 340 343 344 344 343 344 345 344 345 344 344 343 344 345 345 344 345 344 344 345 346 343 344 343 346 344 344 343 343 341 342 342 344 343 343 342 345
344 345 345 346 346 341 343 343 345 344 343 343 343 343 344 346 345 345 344 344 344 344 345 344 343 343 345 345 345 344 343 343 343 344 342 342 342 342 342 341 341 340 341
346 346 346 346 347 342 344 346 344 343 345 345 342 342 340 341 341 344 343 344 344 343 343 341 339 341 340 342 344 342 342 342 341 340 340 341 342 341 340 338 339 337 335
345 346 345 345 345 343 343 345 344 343 342 344 343 342 342 343 341 342 342 341 340 339 340 339 337 335 338 338 342 340 341 342 341 341 341 340 339 337 338 339 338 337 338
344 341 340 344 344 343 342 341 341 342 342 342 342 341 341 342 343 341 335 335 335 336 339 337 339 341 340 342 341 341 341 341 341 339 336 335 336 337 338 337 334 333 332
334 338 337 337 337 342 341 341 341 340 340 341 341 340 340 339 339 339 337 335 339 338 339 339 337 339 340 340 339 339 337 334 333 333 334 334 334 334 333 333 332 328 324
339 339 338 340 339 338 339 341 341 340 339 340 340 340 340 339 339 339 339 338 339 339 339 338 338 338 337 336 334 330 327 327 331 332 332 332 331 331 331 327 322 318 314
335 339 338 337 337 337 335 336 338 338 337 337 338 338 338 337 336 337 337 337 337 337 337 337 337 334 335 333 330 328 325 328 328 328 330 329 329 325 321 319 314 308 305
338 335 338 336 337 338 337 337 337 336 336 336 336 335 335 333 332 331 333 334 333 334 334 334 333 332 332 329 327 324 324 323 323 326 325 323 322 320 316 311 305 304 303
337 338 337 337 337 336 337 336 335 335 335 335 335 335 333 332 330 330 326 323 323 323 326 327 331 330 329 327 325 323 323 323 323 322 320 319 317 312 305 303 302 302 302
335 335 334 334 334 333 333 332 332 331 331 331 331 330 330 322 318 318 318 315 312 314 315 316 317 318 319 320 320 320 319 318 317 317 316 312 306 303 302 302 301 301 301
331 330 327 321 321 320 318 317 318 320 322 325 328 328 325 324 325 324 323 320 314 308 310 313 314 317 317 317 316 315 314 312 309 306 304 303 302 301 301 301 301 301 301
314 315 315 315 315 314 312 311 311 310 310 310 313 317 322 323 320 315 313 314 318 317 313 312 313 311 310 311 310 309 308 306 304 302 301 301 301 300 300 300 300 300 300
312 313 313 313 313 313 313 312 312 311 310 310 309 308 307 306 305 305 305 307 309 310 310 311 311 311 310 309 308 306 304 302 301 300 300 300 300 300 300 300 300 300 300
315 311 311 310 310 311 312 312 312 311 310 310 310 309 309 309 306 303 303 303 304 306 309 312 311 310 309 308 306 304 302 301 300 300 299 299 300 299 299 299 299 298 298
312 311 313 314 313 311 310 310 310 310 309 309 309 309 309 308 307 306 305 306 308 310 311 311 310 308 307 306 303 301 300 299 299 299 299 299 299 299 299 298 298 298 298
311 311 311 310 309 310 311 311 309 309 309 309 308 307 309 308 308 307 307 306 308 309 308 307 307 306 304 303 301 299 298 298 298 298 298 298 298 299 298 298 297 297 297
318 317 314 311 310 309 308 309 307 306 307 306 306 307 308 309 308 308 307 306 306 306 305 304 303 302 301 300 299 298 298 297 297 298 298 298 299 299 298 298 297 297 298
319 319 319 318 316 312 308 307 307 308 308 307 306 306 306 308 309 308 307 306 306 305 304 303 301 300 299 298 298 297 297 297 297 297 298 298 299 298 298 297 297 298 298
319 320 320 318 317 316 314 312 307 308 308 308 306 306 305 305 307 308 308 306 306 305 303 303 301 299 298 297 297 296 297 296 296 297 298 298 298 298 298 297 298 298 298
313 313 313 314 315 315 315 315 314 315 310 308 308 309 307 306 305 306 307 305 305 305 304 303 302 300 299 298 296 296 296 296 297 298 298 298 298 298 297 298 298 298 298

GFSGL_850_thetae_138.txt.gz
Theta_e
350 349 348 348 348 343 347 347 348 345 342 343 345 345 350 350 350 347 344 350 352 351 350 351 351 351 348 348 348 348 347 346 345 344 345 349 347 351 350 350 349 348 350
350 350 349 349 348 346 342 347 347 348 343 345 342 343 347 345 350 349 350 349 351 352 351 351 351 349 351 350 348 349 349 351 348 348 347 348 349 348 350 347 348 347 349
350 349 350 350 349 346 346 342 346 347 346 345 347 345 348 349 349 348 348 351 351 351 351 351 352 351 351 350 352 350 349 349 350 349 349 348 349 349 349 351 350 350 348
351 349 349 344 349 350 350 349 346 344 343 344 344 343 346 350 351 351 352 352 351 352 351 351 350 350 351 350 350 351 349 349 349 351 348 347 348 348 349 349 350 349 344
352 351 347 347 347 349 350 349 342 345 344 344 344 345 350 350 349 350 350 348 350 351 351 351 350 349 349 345 346 349 345 346 348 349 348 347 348 350 348 349 349 347 345
352 352 349 344 344 341 339 346 345 347 349 347 346 346 346 346 347 346 344 343 344 345 349 350 351 347 343 344 345 344 344 343 344 348 347 348 350 349 346 347 348 347 348
345 350 348 350 347 345 344 342 349 350 350 350 350 350 348 343 342 345 345 345 344 344 345 345 346 348 343 343 344 344 344 343 343 341 344 349 346 346 345 346 346 347 345
343 344 345 348 350 346 346 349 350 346 346 347 348 346 344 341 340 342 342 344 343 345 345 345 345 345 344 341 340 344 345 342 341 342 343 342 341 341 341 345 342 342 339
344 345 344 347 346 347 349 348 347 346 347 345 346 344 343 342 342 342 341 343 345 344 343 342 339 339 338 335 338 342 344 342 341 340 342 341 341 339 338 342 343 340 340
346 345 344 342 340 338 341 344 344 343 344 344 343 343 342 341 341 342 343 341 343 339 335 336 339 337 336 340 340 340 341 341 341 341 340 339 337 337 338 338 337 336 335
345 342 339 338 338 341 339 343 343 343 342 341 341 341 341 341 340 340 340 339 337 336 339 339 339 339 338 337 340 344 342 340 338 336 333 331 333 334 334 334 333 331 327
341 340 339 339 339 340 341 341 341 342 341 340 341 341 340 339 339 338 338 338 337 338 338 339 339 338 338 337 335 334 334 332 331 330 330 330 331 331 331 327 321 319 316
339 337 337 339 339 338 337 338 337 338 337 337 337 336 337 338 338 338 338 338 338 338 338 338 338 336 334 334 332 327 327 328 330 329 328 329 329 326 322 319 316 311 306
337 336 336 336 335 338 335 336 336 336 336 336 336 335 336 336 335 335 335 336 336 336 335 334 334 333 332 332 330 328 326 326 325 326 325 324 322 320 318 315 308 305 309
337 336 337 338 338 337 337 336 336 335 335 335 335 335 335 334 333 333 332 331 329 329 330 329 331 330 328 327 325 324 323 323 323 323 322 319 317 315 310 304 303 303 306
337 336 335 335 334 334 334 334 335 335 334 334 334 332 331 328 323 322 321 319 317 316 317 320 321 323 323 322 321 321 320 320 317 316 314 312 310 308 306 303 302 303 307
334 332 331 329 328 327 326 325 327 327 327 327 329 328 325 323 322 323 323 323 318 310 309 311 312 315 316 317 317 317 315 312 309 308 308 306 306 304 306 306 305 306 307
317 316 319 319 318 317 315 313 316 316 313 312 318 322 325 325 325 319 317 317 318 318 313 311 313 314 314 313 311 309 308 308 306 304 302 302 303 305 305 306 305 305 306
316 317 318 319 319 316 316 314 313 313 310 309 309 308 308 307 306 306 307 309 313 315 313 315 315 314 313 311 310 308 307 305 303 301 301 301 301 304 304 302 302 300 300
315 312 313 315 314 317 318 317 315 314 313 313 312 311 310 309 310 309 306 303 305 312 312 313 313 312 311 310 309 307 306 303 301 300 300 300 300 300 300 300 300 300 301
314 312 311 314 314 315 316 316 316 315 315 314 313 312 309 310 312 312 312 311 311 312 313 312 311 311 310 309 307 306 303 301 300 300 299 299 299 299 299 299 299 299 300
317 316 315 315 314 313 313 313 313 313 313 313 314 313 309 308 311 312 312 312 312 311 312 312 311 309 308 306 305 304 303 301 300 299 299 299 298 298 299 299 299 300 301
320 320 319 318 316 314 312 313 313 312 312 312 312 312 310 309 311 311 311 311 311 310 308 306 306 305 304 303 302 301 302 301 300 298 299 298 298 300 300 301 301 301 302
320 321 320 320 319 318 316 315 314 312 311 312 312 313 312 311 311 311 311 311 310 309 308 307 306 305 303 302 301 300 299 299 298 297 297 301 301 299 301 301 301 301 302
321 321 320 319 318 318 317 317 316 315 314 313 312 312 312 312 311 311 311 311 310 309 308 306 306 304 302 300 301 300 299 297 297 297 298 300 301 300 301 301 302 301 302
315 315 314 314 314 314 315 315 316 317 317 315 313 310 310 310 309 310 310 310 310 309 308 305 304 303 301 299 298 298 297 296 296 296 298 300 301 301 301 302 301 302 302

GFSGL_850_thetae_141.txt.gz
Theta_e
351 351 351 351 350 349 349 348 347 350 353 350 351 352 352 352 352 349 349 348 355 352 350 350 350 351 351 348 350 348 346 345 346 346 347 347 346 348 349 350 349 349 351
351 351 351 351 351 350 350 351 351 350 352 351 350 351 351 352 353 354 352 351 352 351 350 352 351 349 350 353 349 346 345 347 348 347 346 347 348 346 350 348 347 350 351
352 351 351 352 352 351 351 351 351 352 352 352 350 351 352 352 352 354 354 353 352 351 351 350 349 351 348 350 350 353 350 350 350 349 350 346 348 346 350 348 351 350 347
352 351 351 353 353 352 351 352 352 353 351 351 352 352 351 351 352 351 353 352 353 350 349 350 348 348 349 349 351 348 349 349 348 350 350 347 349 349 349 348 349 348 347
353 353 352 352 353 354 354 353 354 354 352 352 353 352 351 352 350 352 351 351 350 351 351 350 351 349 348 349 349 349 349 349 349 349 348 349 347 347 350 351 350 349 347
354 354 354 355 354 353 353 353 353 351 353 353 350 352 347 350 349 348 348 347 344 344 344 345 348 349 348 346 343 344 344 343 343 348 349 348 348 350 350 345 347 349 347
355 355 356 356 355 354 353 353 352 351 351 352 353 352 351 349 346 344 344 345 346 345 344 344 344 343 349 347 345 344 344 344 345 343 343 342 345 345 344 346 348 347 347
357 355 354 353 355 353 350 349 351 352 351 349 349 350 351 350 345 342 342 345 345 349 347 348 346 346 345 345 346 348 348 348 343 343 345 345 342 341 341 345 345 344 342
352 345 344 343 343 345 345 350 352 351 350 348 345 347 348 349 343 343 342 342 346 346 348 347 344 343 341 338 338 339 345 343 343 342 342 341 341 341 340 341 344 342 342
352 351 351 350 345 350 349 352 350 351 350 345 344 343 344 344 343 342 342 343 345 345 345 342 339 336 338 338 336 340 340 343 341 340 341 340 339 337 338 340 340 339 337
341 343 347 346 345 341 343 344 343 345 345 344 344 343 343 342 342 342 341 340 341 340 340 339 337 338 338 339 338 338 341 342 341 338 336 334 333 331 335 336 335 334 331
346 345 344 342 341 340 340 340 339 342 342 342 342 341 340 341 340 339 338 338 338 337 337 337 338 338 338 338 337 337 338 341 337 335 333 331 330 330 330 328 322 317 317
343 342 340 340 340 338 339 336 335 337 337 336 337 337 336 336 336 336 337 337 338 338 338 338 338 337 337 336 333 332 332 334 333 331 330 329 328 326 321 318 317 315 313
338 338 338 339 338 336 335 335 336 336 333 334 335 335 336 336 336 336 336 336 336 336 336 336 336 335 333 332 332 331 330 327 328 328 326 324 323 322 323 317 314 307 308
336 336 336 335 337 338 336 337 336 336 336 336 335 334 334 333 333 334 333 332 330 328 328 329 331 332 329 328 327 326 325 325 324 323 323 322 320 317 314 310 306 311 312
337 337 337 337 336 337 336 335 335 335 335 334 334 333 333 332 330 328 326 324 322 318 318 324 324 324 325 325 324 321 321 320 319 318 316 315 314 312 310 310 310 310 311
336 335 333 332 332 332 331 330 330 329 328 327 328 329 329 327 326 324 324 323 320 314 318 319 319 315 316 318 318 318 317 315 312 310 313 312 310 308 307 309 309 310 311
326 324 323 322 322 322 321 321 321 321 322 315 316 318 321 324 326 324 320 316 316 316 318 316 312 312 313 315 314 313 309 308 308 306 305 306 305 308 308 309 309 309 309
323 322 321 321 319 318 317 316 317 316 316 317 311 309 308 308 308 308 306 306 316 317 317 316 317 318 317 315 313 311 310 310 308 307 308 307 307 307 308 306 306 305 301
317 315 318 320 318 320 320 318 318 318 317 316 315 315 313 311 314 316 315 311 311 312 314 316 316 316 315 313 312 310 308 307 306 303 304 303 301 301 301 300 301 301 303
316 315 315 317 318 319 320 319 319 318 317 317 316 315 314 313 314 315 315 315 315 314 315 315 315 314 314 312 310 309 307 307 305 303 302 301 300 302 301 301 302 302 303
318 318 318 318 317 316 316 316 316 316 316 316 316 316 315 313 311 313 314 314 314 314 314 315 315 314 313 312 311 310 308 307 306 304 303 303 303 303 302 303 303 304 304
321 321 321 321 319 318 317 317 317 316 316 316 315 315 314 313 312 313 314 314 314 314 313 313 313 312 311 310 308 307 307 305 304 304 304 303 303 303 303 304 304 304 304
321 321 321 320 320 320 319 319 318 317 316 315 314 314 315 314 314 314 314 314 314 313 312 311 310 310 309 308 307 306 305 304 303 303 302 303 304 303 303 304 304 304 305
322 322 320 320 320 319 318 318 318 318 317 315 315 315 314 314 314 314 314 314 313 313 312 311 310 309 308 306 305 304 303 302 300 301 302 303 304 303 304 304 304 304 304
319 317 314 313 312 312 313 313 313 314 314 315 315 316 315 314 314 313 313 313 312 313 312 311 310 308 307 306 304 302 299 298 297 297 297 302 303 303 303 304 303 304 303

GFSGL_850_thetae_144.txt.gz
Theta_e
350 351 348 347 343 344 345 345 344 344 348 348 351 351 350 351 353 350 346 347 348 350 352 344 345 346 344 346 345 348 349 346 348 349 349 346 348 344 344 336 350 349 350
350 352 349 349 349 346 344 348 345 343 345 346 345 342 344 345 347 350 348 345 351 348 347 347 347 347 347 346 348 349 353 347 345 348 341 343 347 350 350 345 351 350 350
352 351 351 350 349 351 351 347 351 349 344 345 345 345 345 345 347 349 349 349 347 347 347 349 350 347 348 346 348 344 345 349 348 347 347 350 349 349 349 350 348 350 347
352 352 351 351 351 350 350 351 349 350 349 348 348 347 347 346 348 350 348 351 349 349 349 348 349 349 347 346 348 348 346 344 346 348 348 344 346 350 343 348 348 347 348
352 351 351 350 350 350 351 350 350 350 349 349 348 348 349 349 350 349 348 350 346 345 346 347 348 348 349 349 348 347 345 345 346 347 346 344 348 348 348 348 348 347 348
353 352 352 351 350 351 350 350 350 351 351 351 350 350 350 349 350 350 350 349 347 346 345 344 344 344 346 348 347 344 343 343 344 343 343 342 346 347 346 344 342 342 347
353 353 353 352 352 350 350 349 349 350 349 349 350 351 349 349 347 346 346 346 346 345 344 344 344 344 344 346 345 342 340 339 344 344 344 344 342 341 342 342 341 341 343
353 352 353 353 353 352 351 350 347 349 350 350 349 349 352 349 346 347 344 342 342 344 347 347 348 348 345 345 344 343 343 344 342 343 344 344 343 343 342 341 341 342 342
352 353 354 354 354 351 351 353 351 349 349 351 350 349 348 346 344 343 341 341 343 345 345 344 342 343 344 344 342 338 338 339 339 341 340 340 341 340 340 340 340 342 341
353 353 353 352 346 345 345 344 347 347 348 349 349 348 346 345 344 341 340 342 344 342 344 343 342 342 338 337 338 338 337 339 344 342 341 339 338 339 338 338 340 340 336
349 348 348 347 349 349 347 348 345 341 342 343 345 345 344 344 343 343 343 342 341 341 342 342 342 341 340 338 338 338 338 338 340 341 338 335 335 334 334 335 335 333 326
340 338 338 342 344 343 343 340 340 340 339 341 341 343 343 342 340 341 340 340 340 340 338 338 336 336 337 337 338 338 337 337 338 339 337 334 334 333 332 331 329 324 320
339 342 345 344 341 339 338 338 337 338 337 338 337 338 338 336 336 337 337 337 337 335 336 338 338 338 338 337 335 334 332 331 335 336 335 333 332 331 327 323 322 324 324
345 343 341 338 340 338 338 336 335 335 335 334 334 334 334 334 336 336 335 335 335 335 336 336 336 336 335 334 332 332 332 330 328 329 329 328 326 324 323 322 317 314 307
339 338 338 338 337 336 336 336 335 335 334 334 335 335 335 335 334 334 333 332 330 329 330 329 328 330 331 329 327 325 325 325 324 324 323 323 321 318 315 312 308 310 313
336 336 336 336 337 337 336 336 335 335 335 334 334 334 334 333 331 329 325 323 322 318 319 325 323 321 325 325 324 323 322 320 320 318 315 314 314 312 311 310 309 311 312
337 336 336 336 336 335 332 331 332 330 329 328 327 328 327 327 325 324 324 324 323 320 320 321 321 315 315 316 319 320 319 318 317 317 314 314 312 311 309 310 309 310 311
333 332 332 331 330 328 327 325 318 318 315 314 315 317 319 322 323 324 320 317 315 316 316 319 320 316 312 314 315 315 314 310 308 308 307 306 305 307 307 309 309 310 311
324 324 323 321 319 319 318 318 318 318 320 317 313 311 309 310 310 311 312 310 308 317 317 318 317 317 318 317 316 315 312 310 310 307 309 308 306 306 309 308 308 307 304
323 322 322 321 319 321 320 319 320 320 318 317 317 316 315 313 315 317 317 316 315 313 314 316 317 317 318 317 315 312 310 309 308 306 305 305 304 302 304 305 302 301 301
317 319 320 321 322 322 322 321 320 319 319 318 318 317 316 315 313 315 316 317 316 316 316 316 316 316 316 314 313 311 310 309 308 306 304 303 302 300 302 302 302 302 303
318 318 318 318 318 317 317 317 317 317 317 317 317 318 317 315 314 313 314 315 315 315 315 316 316 315 314 314 313 311 311 309 308 306 305 304 304 304 303 303 304 304 305
321 320 320 321 320 320 319 318 318 318 318 317 317 317 316 315 315 314 313 315 315 315 315 314 314 314 313 312 311 310 309 308 307 306 305 305 304 304 304 304 305 305 305
322 321 322 322 322 321 320 320 320 319 318 318 317 316 315 315 315 315 315 315 315 315 314 314 313 312 311 310 309 308 307 306 305 304 303 304 304 305 303 305 305 305 305
322 323 322 321 320 320 320 319 318 317 317 317 317 317 316 316 315 315 315 315 315 315 314 313 313 311 310 309 308 307 306 305 304 301 301 304 305 305 305 304 305 305 304
321 320 317 315 313 312 312 312 312 311 311 311 311 312 313 316 316 314 313 314 314 313 313 313 312 311 309 308 307 305 304 302 300 299 297 299 301 303 304 305 304 304 304

GFSGL_850_thetae_147.txt.gz
Theta_e
345 342 341 340 340 345 344 343 344 344 345 347 350 350 348 347 348 349 349 346 348 348 350 344 345 343 343 342 346 346 345 348 347 344 344 344 347 348 349 346 345 346 349
347 343 344 343 341 339 340 343 345 344 347 347 347 346 346 347 350 352 349 348 346 349 346 349 347 348 347 345 347 344 346 346 348 346 343 342 346 348 350 348 347 347 348
347 344 350 346 345 341 340 342 342 344 344 344 345 345 342 341 343 344 345 346 347 346 347 345 346 348 347 348 347 347 347 346 343 344 341 345 349 349 347 348 347 345 346
346 347 351 351 347 346 346 348 348 346 349 347 343 343 345 345 343 345 347 348 347 349 347 347 348 347 349 348 346 348 346 346 345 345 343 344 346 345 345 346 347 346 346
347 350 351 350 349 348 349 350 350 350 348 347 348 347 347 347 349 346 346 346 349 348 345 345 346 346 345 347 347 347 347 348 346 341 340 340 342 343 345 346 346 344 346
352 350 350 351 351 350 349 350 350 349 350 349 349 348 348 349 348 346 347 349 350 348 346 345 344 343 343 343 346 347 346 344 343 343 344 343 343 343 342 343 343 342 342
352 351 351 351 351 349 349 350 349 350 349 349 349 349 350 348 346 347 347 348 348 346 345 344 343 344 343 344 344 345 345 344 340 340 343 343 343 344 343 342 342 342 341
352 352 352 351 351 349 348 345 347 347 347 348 348 347 346 347 345 345 346 346 345 343 343 344 345 344 342 344 345 344 343 342 340 341 341 339 342 343 342 342 341 340 340
352 353 352 351 350 348 346 348 348 348 347 347 347 347 347 347 347 345 343 342 341 341 342 344 345 343 343 343 344 343 340 338 338 338 339 341 338 339 339 339 339 339 340
352 353 351 351 351 348 347 347 347 347 343 344 347 345 346 347 347 345 343 340 341 342 343 342 341 341 342 340 338 338 339 339 339 341 341 341 339 339 338 338 338 339 337
350 352 350 349 349 348 346 345 343 345 345 344 342 342 344 345 344 343 343 341 341 342 341 341 340 338 337 337 337 338 337 337 338 339 340 339 337 335 334 334 334 336 332
340 340 346 345 344 344 343 344 343 341 340 339 338 339 340 342 343 341 341 341 341 340 340 339 337 338 336 337 337 337 337 336 337 338 338 337 335 333 332 332 332 330 330
335 338 338 339 340 339 339 339 339 338 337 337 337 338 340 340 336 336 338 338 338 337 336 335 337 337 337 336 335 335 334 332 332 333 334 334 333 332 330 325 324 323 320
337 336 337 333 339 339 338 336 335 335 334 334 334 334 335 335 335 335 335 335 335 335 335 335 335 334 334 333 332 331 331 330 329 328 328 328 327 324 323 321 317 312 308
341 339 341 339 339 337 336 335 335 334 334 333 333 334 335 335 334 334 333 333 330 328 327 326 326 328 329 330 329 328 327 325 324 324 323 322 320 316 312 310 309 311 312
339 338 338 337 336 336 336 336 335 335 334 334 334 334 334 333 332 329 327 326 323 318 322 322 322 317 320 322 323 323 322 321 320 319 316 312 311 311 310 309 309 311 311
336 336 336 336 337 336 335 334 334 334 333 331 331 330 329 327 325 325 325 324 323 319 321 321 321 320 313 314 316 317 318 317 317 315 314 313 313 311 309 309 309 310 311
334 334 333 332 331 330 319 317 316 316 316 317 320 321 320 319 320 316 312 311 312 315 315 317 317 316 316 314 314 314 314 313 310 308 308 307 306 306 306 307 308 309 311
324 324 325 324 323 321 320 319 318 318 317 315 314 312 313 312 314 316 316 315 311 312 314 315 318 317 317 317 316 316 315 313 311 310 307 307 307 306 306 308 309 309 308
324 322 321 319 319 319 318 318 319 319 318 317 317 316 316 314 314 316 317 317 316 314 314 315 316 316 316 317 316 314 312 310 309 308 307 306 306 306 304 307 307 305 301
322 322 321 321 322 322 321 321 320 320 319 318 318 318 318 317 316 315 314 316 316 316 315 316 316 316 316 315 312 311 311 310 308 307 307 305 304 302 301 302 302 302 302
316 318 318 319 320 320 319 318 318 317 317 317 317 318 317 316 315 315 313 314 315 315 315 314 313 313 313 313 313 312 310 311 310 308 307 305 304 303 304 303 303 304 304
319 319 319 319 319 320 318 318 317 317 317 317 317 317 316 316 315 315 315 314 314 315 315 314 313 312 312 313 313 311 309 309 308 307 306 305 305 304 304 304 304 305 305
322 321 320 321 321 321 321 320 319 319 318 318 318 317 316 316 316 316 316 315 315 315 315 315 314 313 312 311 311 309 307 306 306 306 305 304 304 304 304 304 305 305 305
321 322 321 321 321 320 319 319 318 316 315 315 315 316 316 316 315 316 316 315 314 315 315 314 313 313 312 311 310 309 307 306 305 305 303 300 303 305 304 304 305 305 305
320 321 317 314 313 313 313 314 313 313 312 311 311 311 310 310 311 313 314 315 314 314 314 313 313 313 312 311 310 309 306 304 304 301 300 298 298 301 303 304 305 304 304